Temp
-25 -25 -25 -24 -24 -23 -22 -22 -20 -20 -20 -19 -18 -17 -18 -17 -17 -17 -17 -17 -17 -17 -17 -16 -16 -16 -16 -16 -16 -16 -16 -16 -17 -17 -17 -17 -17 -17 -17 -17 -17 -17 -17 -17 -18 -18 -18 -18 -18 -18 -19 -19 -19 -19
-25 -24 -25 -25 -25 -23 -22 -21 -21 -21 -20 -19 -19 -18 -17 -17 -17 -17 -17 -17 -17 -17 -17 -17 -17 -16 -16 -16 -16 -16 -16 -16 -16 -16 -17 -17 -17 -17 -17 -17 -17 -17 -17 -17 -18 -18 -18 -18 -18 -18 -18 -19 -19 -19
-26 -25 -25 -25 -23 -22 -22 -21 -21 -20 -20 -18 -18 -18 -17 -17 -17 -17 -17 -17 -17 -17 -17 -17 -16 -16 -16 -17 -16 -17 -17 -17 -16 -16 -16 -17 -17 -17 -17 -17 -17 -17 -17 -17 -18 -18 -18 -18 -18 -18 -19 -19 -19 -19
-25 -25 -25 -24 -23 -22 -22 -21 -21 -20 -20 -18 -19 -18 -18 -18 -18 -17 -17 -17 -17 -17 -17 -17 -17 -17 -17 -17 -17 -17 -17 -17 -16 -16 -17 -17 -17 -17 -17 -17 -17 -17 -17 -18 -18 -18 -18 -18 -18 -19 -19 -19 -19 -19
-25 -26 -25 -24 -24 -22 -22 -21 -21 -20 -20 -19 -18 -19 -18 -18 -18 -18 -18 -17 -17 -17 -17 -17 -17 -17 -17 -17 -17 -17 -17 -17 -16 -17 -18 -17 -17 -17 -17 -17 -17 -17 -18 -18 -18 -18 -18 -18 -19 -19 -19 -19 -19 -19
-25 -25 -25 -24 -23 -23 -22 -21 -21 -20 -20 -19 -19 -18 -18 -18 -18 -18 -18 -17 -17 -17 -17 -17 -17 -17 -17 -17 -17 -17 -17 -17 -17 -17 -18 -18 -17 -17 -17 -17 -17 -18 -18 -18 -18 -18 -18 -18 -19 -19 -19 -19 -19 -19
-25 -25 -24 -24 -23 -22 -22 -21 -21 -21 -20 -20 -19 -18 -18 -18 -18 -18 -18 -18 -18 -17 -17 -18 -17 -17 -17 -17 -17 -17 -17 -17 -17 -17 -18 -18 -17 -17 -17 -18 -18 -17 -18 -18 -18 -18 -18 -18 -19 -19 -19 -19 -19 -19
-25 -25 -24 -24 -23 -23 -22 -22 -21 -21 -21 -20 -19 -19 -19 -19 -19 -18 -18 -18 -18 -18 -18 -17 -17 -17 -17 -17 -17 -17 -17 -17 -17 -17 -18 -18 -18 -17 -17 -19 -18 -18 -18 -18 -18 -18 -19 -19 -19 -19 -19 -19 -19 -19
-25 -24 -24 -23 -23 -22 -22 -21 -21 -21 -20 -19 -19 -19 -19 -19 -19 -19 -19 -18 -19 -18 -18 -17 -18 -18 -17 -17 -17 -17 -17 -17 -17 -17 -18 -18 -17 -16 -18 -19 -19 -18 -18 -18 -18 -18 -18 -19 -19 -19 -19 -19 -19 -19
-24 -24 -23 -22 -22 -21 -22 -21 -21 -21 -21 -20 -20 -20 -20 -20 -20 -19 -19 -19 -19 -18 -18 -18 -18 -17 -18 -17 -17 -17 -17 -16 -17 -18 -18 -17 -17 -17 -18 -18 -18 -18 -18 -18 -18 -18 -18 -19 -19 -19 -19 -19 -20 -20
-23 -23 -22 -22 -22 -22 -21 -21 -21 -21 -20 -21 -20 -20 -20 -20 -20 -20 -20 -19 -18 -18 -18 -18 -18 -18 -18 -17 -17 -17 -16 -16 -17 -18 -18 -17 -16 -18 -19 -18 -18 -18 -18 -18 -18 -18 -18 -19 -19 -19 -19 -20 -20 -20
-22 -23 -22 -22 -22 -22 -21 -21 -20 -20 -20 -20 -20 -20 -20 -20 -20 -20 -19 -18 -18 -17 -17 -18 -18 -18 -18 -18 -17 -17 -17 -18 -17 -18 -18 -17 -17 -18 -18 -18 -18 -18 -18 -18 -18 -18 -19 -19 -19 -19 -19 -20 -20 -20
-22 -22 -22 -21 -21 -21 -21 -21 -21 -20 -20 -20 -20 -20 -20 -19 -19 -18 -18 -17 -17 -17 -18 -18 -18 -18 -18 -18 -18 -18 -18 -18 -18 -18 -17 -17 -17 -18 -18 -18 -18 -18 -18 -18 -18 -18 -19 -19 -19 -19 -19 -19 -20 -20
-21 -22 -22 -21 -21 -21 -21 -21 -21 -20 -20 -20 -19 -19 -19 -18 -18 -17 -17 -17 -18 -19 -19 -19 -18 -18 -18 -18 -18 -19 -19 -19 -18 -18 -17 -18 -18 -18 -18 -17 -18 -18 -18 -18 -18 -19 -19 -19 -19 -19 -19 -20 -20 -20
-22 -21 -21 -21 -22 -21 -21 -21 -21 -21 -20 -20 -20 -19 -19 -18 -18 -18 -18 -19 -19 -19 -19 -18 -18 -18 -18 -18 -18 -18 -18 -18 -18 -18 -18 -18 -18 -18 -18 -18 -18 -18 -18 -18 -18 -18 -19 -19 -19 -19 -20 -20 -20 -20
-22 -22 -22 -22 -22 -21 -21 -21 -21 -20 -20 -20 -20 -19 -19 -18 -18 -19 -19 -19 -20 -19 -19 -18 -18 -18 -18 -18 -17 -17 -17 -17 -18 -18 -18 -18 -18 -18 -18 -18 -18 -18 -18 -18 -18 -19 -19 -19 -19 -20 -20 -20 -20 -20
-21 -21 -22 -22 -22 -21 -21 -21 -21 -21 -21 -20 -20 -19 -19 -19 -20 -20 -20 -20 -20 -19 -19 -19 -19 -19 -18 -18 -17 -17 -18 -19 -19 -19 -19 -18 -18 -18 -18 -18 -18 -18 -18 -18 -19 -19 -19 -19 -19 -19 -19 -19 -19 -19
-22 -22 -21 -21 -21 -21 -22 -22 -21 -21 -20 -20 -20 -20 -20 -20 -20 -20 -20 -20 -20 -19 -19 -19 -19 -18 -18 -18 -18 -19 -20 -20 -20 -19 -19 -18 -18 -18 -18 -18 -18 -18 -18 -18 -18 -18 -19 -19 -19 -19 -19 -19 -19 -19
-22 -22 -22 -21 -22 -22 -21 -21 -21 -20 -20 -20 -20 -20 -20 -21 -21 -20 -20 -20 -20 -19 -19 -19 -19 -18 -18 -18 -18 -19 -20 -20 -19 -19 -19 -19 -19 -18 -18 -18 -18 -18 -18 -18 -18 -18 -18 -18 -18 -19 -19 -19 -19 -19
-23 -23 -22 -22 -22 -22 -22 -21 -21 -21 -20 -20 -20 -21 -21 -21 -21 -21 -20 -20 -20 -20 -19 -19 -19 -19 -19 -19 -19 -20 -20 -19 -19 -19 -19 -19 -19 -19 -18 -18 -18 -18 -18 -18 -18 -18 -18 -18 -18 -19 -19 -19 -19 -19
-22 -23 -23 -22 -22 -22 -22 -22 -21 -21 -21 -21 -21 -21 -21 -21 -21 -21 -20 -20 -20 -19 -19 -19 -20 -19 -19 -19 -20 -20 -20 -19 -19 -19 -19 -19 -19 -19 -18 -18 -18 -18 -18 -18 -18 -18 -18 -19 -19 -19 -19 -19 -19 -20
-22 -22 -22 -23 -23 -23 -22 -22 -22 -22 -22 -21 -22 -21 -21 -21 -21 -21 -20 -20 -19 -19 -20 -20 -20 -20 -19 -20 -20 -21 -20 -19 -19 -19 -20 -19 -19 -19 -19 -18 -19 -18 -18 -18 -19 -19 -19 -19 -19 -19 -19 -19 -19 -20
-23 -23 -23 -23 -23 -23 -22 -22 -22 -22 -22 -22 -22 -22 -22 -21 -21 -20 -20 -19 -19 -20 -20 -20 -20 -20 -20 -20 -20 -20 -20 -20 -20 -20 -20 -20 -20 -20 -19 -19 -19 -19 -19 -19 -19 -19 -19 -19 -19 -19 -20 -20 -20 -20
-23 -23 -23 -22 -22 -22 -22 -22 -22 -22 -22 -22 -22 -22 -21 -21 -21 -20 -19 -19 -20 -20 -20 -20 -20 -20 -20 -20 -19 -20 -20 -20 -20 -20 -20 -20 -20 -20 -20 -19 -19 -19 -19 -19 -19 -19 -19 -19 -19 -19 -20 -20 -20 -20
-23 -23 -23 -23 -22 -22 -22 -22 -22 -22 -22 -22 -22 -21 -21 -21 -21 -20 -19 -19 -20 -20 -20 -20 -20 -20 -20 -20 -20 -20 -20 -20 -20 -20 -20 -20 -20 -20 -20 -20 -20 -20 -19 -20 -19 -19 -19 -19 -20 -20 -20 -20 -20 -21
-24 -23 -23 -22 -22 -22 -22 -22 -22 -22 -22 -22 -22 -21 -21 -21 -21 -20 -19 -20 -20 -20 -20 -20 -20 -20 -20 -20 -20 -20 -20 -20 -20 -20 -20 -20 -20 -20 -20 -20 -20 -20 -20 -20 -19 -19 -20 -20 -20 -20 -20 -20 -21 -21
-24 -23 -23 -23 -22 -22 -22 -22 -22 -22 -22 -22 -22 -22 -22 -22 -21 -20 -20 -20 -21 -21 -20 -20 -20 -20 -20 -20 -20 -20 -20 -20 -21 -21 -21 -21 -21 -21 -20 -20 -20 -20 -20 -20 -20 -20 -20 -20 -20 -21 -21 -21 -21 -21
-23 -22 -22 -23 -23 -23 -23 -23 -23 -22 -22 -22 -22 -22 -21 -21 -21 -21 -21 -21 -21 -21 -20 -20 -20 -20 -21 -21 -20 -20 -21 -21 -21 -21 -21 -21 -21 -21 -21 -21 -21 -21 -21 -21 -21 -21 -21 -21 -21 -21 -21 -21 -21 -21
-25 -24 -24 -24 -23 -23 -23 -23 -22 -22 -22 -22 -22 -22 -21 -21 -22 -22 -21 -21 -20 -20 -20 -20 -20 -20 -21 -22 -22 -22 -22 -22 -22 -22 -21 -21 -21 -21 -21 -21 -21 -21 -21 -21 -21 -21 -21 -21 -21 -22 -22 -22 -22 -22
-26 -26 -26 -25 -25 -24 -24 -24 -24 -24 -24 -23 -23 -22 -22 -22 -22 -21 -21 -20 -20 -20 -20 -20 -21 -21 -21 -22 -22 -22 -22 -22 -22 -22 -22 -22 -22 -22 -22 -22 -22 -21 -21 -21 -21 -21 -21 -22 -22 -22 -22 -22 -22 -23
-28 -28 -27 -27 -26 -26 -27 -27 -26 -25 -25 -24 -24 -23 -23 -23 -22 -21 -21 -21 -21 -21 -21 -21 -22 -22 -22 -23 -23 -23 -23 -23 -23 -22 -22 -22 -22 -22 -22 -22 -22 -22 -22 -22 -22 -22 -22 -22 -23 -23 -23 -23 -23 -23
-31 -30 -29 -29 -29 -29 -29 -28 -28 -27 -27 -26 -25 -24 -24 -23 -22 -22 -21 -21 -21 -22 -23 -23 -23 -23 -23 -23 -23 -23 -23 -23 -23 -23 -23 -23 -23 -22 -22 -22 -22 -22 -22 -22 -23 -23 -23 -23 -24 -24 -24 -24 -24 -24
-33 -32 -32 -31 -31 -31 -31 -30 -30 -29 -28 -28 -27 -26 -25 -25 -23 -23 -22 -22 -23 -23 -23 -23 -23 -23 -23 -23 -23 -23 -23 -23 -23 -23 -23 -23 -23 -23 -23 -23 -23 -23 -23 -23 -23 -24 -24 -24 -24 -24 -24 -25 -25 -25
Height
5279 5294 5314 5338 5360 5381 5402 5423 5442 5457 5480 5503 5525 5541 5556 5575 5593 5610 5623 5637 5648 5657 5666 5673 5681 5690 5696 5702 5706 5710 5713 5717 5719 5720 5722 5724 5727 5729 5731 5733 5734 5736 5736 5734 5734 5731 5729 5726 5723 5720 5716 5711 5707 5702
5287 5305 5323 5344 5364 5390 5407 5426 5445 5466 5485 5505 5523 5541 5558 5576 5593 5608 5623 5634 5645 5654 5664 5672 5678 5684 5688 5693 5700 5704 5709 5713 5714 5714 5718 5719 5723 5725 5727 5729 5730 5732 5732 5731 5731 5728 5725 5722 5719 5715 5711 5707 5702 5698
5294 5314 5338 5356 5375 5396 5414 5432 5451 5471 5489 5506 5523 5540 5558 5575 5592 5607 5618 5630 5640 5649 5658 5665 5673 5681 5687 5692 5696 5702 5705 5707 5709 5710 5712 5714 5719 5721 5723 5725 5727 5727 5727 5727 5725 5724 5721 5718 5715 5712 5708 5703 5699 5694
5308 5329 5349 5367 5385 5401 5417 5435 5453 5469 5486 5503 5523 5540 5558 5574 5588 5602 5615 5626 5636 5647 5654 5663 5670 5677 5682 5687 5692 5696 5700 5702 5702 5704 5707 5712 5716 5717 5719 5721 5722 5723 5722 5722 5720 5720 5717 5714 5712 5708 5704 5700 5695 5690
5326 5344 5358 5378 5393 5408 5422 5441 5456 5474 5492 5510 5527 5542 5557 5574 5590 5601 5612 5623 5632 5644 5652 5659 5666 5672 5678 5683 5688 5692 5695 5697 5698 5700 5705 5709 5711 5713 5714 5717 5718 5718 5718 5718 5717 5715 5713 5711 5708 5704 5700 5695 5691 5685
5341 5354 5371 5387 5401 5414 5428 5446 5464 5481 5498 5514 5530 5545 5562 5578 5592 5601 5610 5619 5629 5639 5648 5655 5663 5669 5674 5680 5683 5687 5690 5692 5695 5697 5701 5703 5706 5708 5710 5712 5711 5714 5714 5713 5713 5710 5708 5705 5702 5700 5696 5691 5686 5681
5355 5367 5383 5394 5408 5423 5439 5455 5472 5487 5502 5518 5532 5547 5565 5578 5590 5600 5611 5620 5627 5635 5644 5652 5658 5664 5670 5674 5679 5683 5685 5689 5691 5693 5694 5698 5700 5703 5706 5706 5706 5710 5710 5710 5708 5706 5704 5701 5698 5695 5691 5687 5682 5677
5366 5379 5391 5403 5418 5433 5448 5465 5478 5492 5505 5520 5534 5549 5562 5576 5589 5598 5605 5615 5623 5633 5641 5648 5655 5662 5666 5671 5674 5677 5680 5682 5684 5687 5689 5692 5695 5698 5702 5699 5702 5704 5705 5705 5703 5701 5699 5696 5693 5690 5686 5682 5678 5673
5378 5391 5404 5416 5430 5444 5459 5472 5485 5496 5508 5523 5538 5550 5562 5573 5584 5594 5603 5613 5620 5630 5637 5645 5652 5658 5660 5664 5668 5671 5673 5674 5676 5680 5683 5685 5689 5693 5699 5695 5696 5699 5700 5699 5698 5696 5694 5691 5688 5684 5681 5677 5673 5668
5394 5404 5416 5428 5443 5455 5466 5478 5488 5499 5513 5526 5539 5550 5559 5572 5583 5592 5601 5608 5616 5625 5636 5642 5647 5652 5657 5659 5662 5665 5666 5666 5668 5674 5676 5679 5686 5690 5690 5689 5691 5693 5694 5694 5692 5690 5687 5684 5681 5678 5675 5672 5668 5663
5406 5417 5429 5438 5450 5462 5474 5486 5495 5505 5517 5527 5537 5549 5562 5574 5584 5592 5597 5604 5615 5624 5631 5636 5642 5647 5650 5654 5657 5658 5659 5660 5663 5669 5670 5676 5683 5684 5681 5685 5686 5688 5688 5687 5685 5683 5680 5677 5674 5672 5669 5665 5662 5657
5418 5428 5439 5448 5460 5470 5480 5489 5498 5511 5522 5534 5544 5555 5564 5573 5581 5586 5592 5603 5611 5619 5626 5632 5637 5641 5644 5648 5651 5653 5653 5655 5659 5664 5666 5672 5678 5676 5677 5679 5681 5681 5680 5679 5677 5675 5673 5670 5668 5665 5662 5659 5655 5651
5430 5438 5448 5458 5468 5477 5486 5495 5505 5515 5526 5535 5544 5554 5560 5567 5574 5583 5590 5600 5608 5617 5626 5631 5634 5637 5640 5644 5646 5647 5647 5650 5655 5658 5662 5670 5670 5670 5671 5673 5674 5674 5672 5671 5669 5668 5665 5663 5661 5658 5655 5652 5649 5645
5437 5447 5456 5464 5471 5480 5490 5499 5507 5517 5527 5535 5544 5552 5560 5568 5576 5585 5593 5602 5611 5618 5622 5624 5628 5631 5634 5636 5637 5638 5640 5644 5647 5652 5661 5663 5662 5663 5664 5666 5667 5666 5665 5664 5662 5659 5657 5656 5654 5651 5649 5646 5643 5640
5445 5454 5461 5467 5475 5483 5492 5501 5510 5519 5527 5536 5544 5551 5559 5567 5574 5582 5591 5600 5606 5610 5614 5618 5623 5625 5628 5629 5631 5632 5634 5636 5642 5651 5652 5652 5654 5656 5658 5658 5659 5658 5657 5655 5654 5652 5650 5649 5648 5645 5643 5641 5638 5634
5448 5454 5462 5470 5477 5485 5495 5503 5511 5520 5527 5535 5541 5549 5557 5564 5571 5581 5589 5596 5601 5604 5608 5613 5617 5620 5623 5624 5627 5628 5630 5635 5642 5643 5644 5645 5646 5648 5650 5650 5651 5650 5649 5648 5647 5645 5644 5642 5641 5639 5637 5634 5632 5629
5447 5455 5460 5469 5477 5485 5493 5502 5509 5515 5523 5530 5538 5547 5553 5560 5568 5579 5586 5591 5595 5599 5604 5608 5612 5615 5617 5619 5622 5625 5628 5630 5631 5633 5636 5637 5639 5640 5642 5642 5643 5642 5642 5641 5640 5638 5637 5636 5635 5633 5631 5629 5626 5624
5451 5455 5463 5469 5476 5485 5492 5499 5506 5513 5519 5528 5536 5544 5550 5557 5567 5575 5579 5584 5589 5593 5597 5602 5606 5608 5611 5614 5616 5617 5617 5618 5621 5625 5627 5630 5631 5633 5634 5634 5635 5635 5635 5634 5633 5631 5630 5629 5628 5626 5625 5623 5621 5618
5449 5456 5462 5469 5477 5485 5491 5497 5504 5510 5517 5525 5532 5537 5544 5553 5561 5567 5572 5577 5581 5585 5590 5594 5597 5602 5606 5607 5606 5607 5609 5612 5615 5618 5620 5622 5623 5625 5626 5627 5628 5627 5627 5626 5625 5625 5624 5622 5622 5621 5619 5617 5615 5612
5445 5451 5458 5466 5473 5479 5485 5492 5499 5506 5512 5520 5526 5532 5540 5547 5554 5560 5565 5569 5573 5577 5582 5587 5593 5596 5597 5598 5599 5600 5602 5605 5608 5611 5612 5614 5615 5617 5618 5619 5619 5619 5619 5618 5618 5618 5618 5616 5615 5614 5612 5609 5607 5604
5439 5445 5454 5461 5468 5476 5481 5487 5492 5498 5505 5512 5518 5526 5534 5541 5546 5551 5555 5560 5564 5570 5576 5582 5585 5586 5588 5589 5590 5592 5595 5598 5600 5603 5605 5606 5607 5609 5610 5611 5611 5611 5611 5610 5610 5610 5610 5610 5608 5606 5604 5601 5598 5595
5433 5442 5450 5457 5464 5470 5475 5482 5488 5494 5501 5507 5513 5520 5526 5532 5537 5542 5546 5550 5556 5564 5569 5574 5576 5577 5578 5579 5581 5583 5588 5590 5592 5594 5596 5597 5599 5600 5601 5603 5602 5603 5602 5601 5601 5601 5601 5601 5599 5597 5595 5592 5589 5585
5427 5434 5441 5447 5453 5459 5467 5474 5480 5486 5492 5499 5505 5511 5516 5521 5526 5531 5535 5541 5549 5555 5559 5562 5565 5567 5568 5570 5572 5575 5579 5581 5583 5585 5587 5589 5590 5592 5593 5595 5594 5594 5594 5591 5591 5592 5591 5590 5588 5587 5585 5582 5579 5575
5416 5422 5428 5434 5441 5448 5456 5462 5470 5476 5481 5487 5493 5499 5506 5511 5516 5520 5525 5532 5540 5544 5547 5551 5554 5557 5559 5561 5563 5567 5570 5572 5574 5576 5577 5580 5581 5582 5584 5586 5587 5586 5585 5584 5582 5581 5580 5579 5578 5576 5574 5571 5567 5564
5406 5409 5417 5424 5432 5441 5447 5454 5460 5465 5471 5477 5484 5489 5495 5500 5504 5509 5515 5523 5529 5532 5536 5539 5543 5547 5550 5552 5554 5557 5559 5563 5565 5565 5567 5570 5572 5572 5574 5575 5577 5576 5576 5575 5573 5573 5572 5569 5567 5565 5562 5560 5556 5552
5389 5398 5406 5414 5423 5430 5437 5443 5449 5455 5461 5467 5473 5479 5484 5489 5492 5496 5503 5512 5517 5520 5523 5527 5531 5534 5537 5540 5543 5545 5548 5550 5552 5556 5559 5560 5560 5561 5563 5564 5566 5566 5564 5564 5565 5564 5562 5560 5557 5554 5551 5548 5544 5541
5374 5383 5394 5402 5411 5419 5426 5432 5437 5443 5450 5456 5463 5468 5471 5475 5481 5488 5493 5499 5504 5506 5510 5513 5517 5521 5524 5526 5530 5533 5535 5539 5544 5547 5547 5548 5550 5551 5552 5553 5554 5554 5552 5553 5554 5552 5551 5548 5546 5543 5540 5536 5533 5529
5363 5372 5382 5390 5396 5403 5409 5415 5421 5427 5434 5442 5448 5453 5459 5465 5472 5476 5479 5482 5486 5491 5496 5499 5503 5506 5509 5512 5516 5520 5523 5526 5530 5534 5536 5537 5538 5539 5541 5541 5542 5543 5542 5541 5540 5539 5538 5535 5533 5530 5528 5524 5521 5517
5351 5360 5365 5373 5379 5385 5392 5400 5408 5414 5421 5426 5433 5438 5446 5450 5454 5455 5459 5466 5472 5477 5482 5484 5487 5490 5493 5497 5503 5507 5511 5514 5518 5521 5523 5525 5526 5527 5527 5529 5530 5530 5529 5527 5526 5525 5524 5522 5520 5518 5515 5512 5509 5505
5338 5346 5352 5358 5365 5372 5381 5387 5394 5398 5404 5410 5415 5421 5427 5432 5436 5441 5447 5452 5458 5462 5466 5469 5473 5476 5480 5485 5490 5494 5497 5500 5503 5506 5509 5512 5513 5514 5515 5516 5516 5516 5515 5514 5513 5511 5510 5508 5506 5504 5502 5499 5496 5492
5324 5330 5337 5345 5352 5361 5368 5373 5377 5382 5387 5393 5398 5405 5411 5416 5420 5426 5432 5438 5443 5449 5454 5458 5461 5464 5468 5472 5475 5478 5481 5485 5489 5492 5494 5497 5498 5499 5500 5501 5501 5501 5500 5500 5498 5496 5495 5493 5492 5490 5487 5484 5481 5478
5307 5313 5322 5329 5338 5348 5352 5357 5362 5367 5372 5377 5382 5387 5394 5400 5406 5412 5419 5424 5429 5437 5441 5444 5448 5451 5453 5457 5460 5464 5468 5471 5474 5476 5479 5481 5482 5483 5485 5485 5485 5485 5484 5483 5482 5481 5480 5478 5477 5475 5472 5470 5467 5464
5292 5301 5308 5315 5322 5332 5339 5344 5349 5354 5358 5363 5369 5375 5380 5386 5394 5401 5405 5410 5415 5420 5425 5429 5433 5436 5439 5443 5446 5449 5452 5456 5459 5462 5463 5464 5466 5468 5469 5469 5469 5469 5468 5468 5467 5466 5465 5464 5462 5460 5458 5455 5452 5449
Wind_Speed
57 85 96 100 94 96 85 86 83 65 72 91 89 85 77 70 70 64 57 53 54 47 47 47 39 28 25 25 24 23 20 20 21 21 24 22 19 18 18 15 12 12 11 12 11 11 13 15 17 19 21 22 25 28
64 96 88 83 88 73 81 87 94 85 86 88 86 87 82 73 62 61 55 56 51 50 44 38 33 33 35 34 29 25 23 19 15 17 21 25 21 19 18 15 13 12 12 12 11 10 13 15 18 20 23 25 26 28
82 97 87 82 88 67 71 76 87 79 93 87 79 79 78 77 66 69 65 51 48 47 45 41 37 32 30 27 25 21 20 19 19 20 24 28 22 20 18 15 14 13 12 12 12 12 13 15 18 21 23 25 27 29
98 91 71 79 84 68 70 76 95 100 102 98 74 71 75 75 65 57 49 46 44 40 37 39 36 34 31 28 24 22 20 16 14 19 23 22 20 21 19 17 15 14 14 14 14 14 15 17 20 22 23 25 27 29
95 75 77 84 78 62 75 85 85 94 92 85 77 81 81 76 69 54 54 43 48 46 45 38 35 32 31 30 27 24 20 15 10 16 19 19 20 21 20 18 16 15 16 16 16 17 17 18 21 24 25 26 28 30
70 73 74 71 59 58 73 80 86 91 92 89 83 77 73 66 66 55 57 51 51 48 49 42 36 33 30 28 25 25 26 24 16 15 22 21 20 22 20 17 22 15 15 17 17 19 19 20 22 24 26 27 29 31
73 76 69 57 74 73 80 80 80 83 83 85 77 74 69 65 53 51 45 44 44 49 46 36 36 32 29 28 26 25 26 25 23 20 25 22 23 22 18 19 21 15 15 18 19 21 22 23 25 27 28 30 30 32
66 69 57 67 71 68 72 71 75 76 76 77 75 73 69 55 54 41 42 44 43 37 37 39 34 28 26 25 25 23 24 25 25 24 26 26 25 23 18 21 18 17 18 19 21 22 23 25 26 28 30 30 31 33
57 62 63 67 69 68 70 74 67 73 74 77 76 72 67 56 54 48 45 40 41 39 37 34 33 30 27 25 26 26 26 28 29 29 31 30 26 18 13 20 20 20 19 21 23 25 26 27 27 29 30 30 31 33
61 62 65 69 68 66 70 76 52 56 63 66 65 69 76 65 51 48 44 42 40 41 40 35 31 29 28 27 28 28 30 32 33 32 33 32 21 16 19 23 22 21 21 22 26 28 30 30 29 30 30 31 31 33
61 63 61 70 68 59 65 61 56 56 59 56 56 58 52 51 50 49 47 44 46 45 40 35 32 30 27 27 29 29 28 30 28 30 33 27 16 16 23 21 22 20 20 23 26 28 30 31 30 30 30 30 31 33
56 60 58 58 63 63 67 56 53 55 57 52 49 50 53 55 56 54 52 50 46 41 37 33 30 26 25 27 28 26 27 29 29 29 32 22 16 21 21 21 20 22 24 26 27 27 27 28 28 29 29 29 31 32
56 54 55 50 53 58 55 56 55 54 53 53 54 55 53 54 57 56 57 51 42 39 27 25 25 25 26 27 28 28 30 32 29 31 28 19 19 22 23 22 24 25 25 26 26 26 26 25 26 27 27 28 30 29
47 51 57 54 49 53 54 54 54 54 54 53 53 54 54 55 55 52 50 45 36 28 28 28 30 30 27 28 29 32 30 31 34 29 22 22 26 27 26 26 25 24 25 25 25 24 23 23 23 24 26 27 28 29
54 50 49 47 48 50 52 53 53 54 54 54 53 54 54 51 48 48 46 36 34 32 31 29 29 27 31 30 26 28 30 31 30 23 23 25 27 27 25 24 24 24 24 23 22 22 21 20 20 22 24 26 28 29
52 51 51 51 50 51 52 52 53 53 52 52 52 52 49 49 49 45 37 36 31 28 29 32 31 30 27 26 22 16 17 20 21 21 22 26 27 25 24 24 23 21 20 20 21 18 17 18 19 20 23 25 25 26
46 48 51 51 50 51 50 49 52 52 54 54 53 52 52 50 48 42 38 34 32 33 31 33 31 27 24 24 22 18 10 17 29 26 25 27 24 22 22 21 20 20 19 18 15 15 16 18 20 21 22 23 24 24
44 43 47 49 50 51 51 51 52 54 54 54 54 53 51 50 45 42 40 38 38 35 34 35 35 33 28 25 20 17 23 24 26 31 30 26 22 21 21 20 21 19 16 12 14 15 16 18 19 20 20 22 24 26
47 48 47 48 48 49 51 54 55 56 56 56 55 54 52 47 42 41 42 41 41 38 37 33 33 32 28 28 25 26 26 24 27 29 28 25 23 22 22 23 22 17 13 12 14 16 16 16 17 19 21 24 27 30
51 51 52 48 48 50 52 54 54 56 56 55 54 54 52 48 43 43 43 42 42 42 38 35 31 28 27 26 25 26 27 28 28 29 29 27 25 25 25 25 21 16 14 11 12 14 16 17 20 22 25 27 29 32
55 53 50 53 54 51 52 52 55 57 58 57 55 54 51 51 49 46 47 49 47 43 37 33 30 32 29 27 28 29 30 29 30 31 29 27 27 28 27 27 22 18 15 13 13 16 18 21 24 26 28 29 31 33
54 54 52 52 51 52 54 53 54 52 51 52 51 51 51 51 50 49 50 51 47 40 38 36 34 30 31 31 32 32 31 30 31 30 30 30 31 31 30 28 24 21 19 17 17 19 20 22 26 28 30 32 33 36
58 57 59 56 59 61 58 54 54 54 54 53 52 50 49 49 49 50 51 50 46 42 42 41 37 32 33 34 35 37 33 30 30 31 30 30 31 31 30 31 29 25 23 22 21 21 22 25 27 29 32 35 37 39
66 63 65 69 67 67 65 61 58 56 56 56 56 57 56 54 53 54 53 52 48 46 47 46 44 40 37 37 35 35 33 33 33 33 32 32 32 33 32 32 30 28 28 27 24 24 26 28 29 30 33 36 39 40
76 73 70 71 67 64 64 63 61 59 57 56 55 54 53 55 56 55 55 53 50 50 51 50 47 45 43 42 39 38 37 34 34 36 35 34 33 33 33 33 32 31 31 30 31 30 30 31 32 33 35 37 39 41
69 73 76 74 70 66 62 63 62 61 63 61 56 52 53 55 57 56 54 50 49 50 52 51 49 47 45 44 44 43 42 41 40 37 37 37 37 37 36 35 35 34 36 36 35 34 35 36 37 38 38 39 41 44
68 69 71 75 75 72 69 65 63 62 61 59 57 57 58 58 56 55 55 53 52 54 55 54 51 48 45 46 48 48 47 46 40 38 40 40 39 38 39 39 38 39 40 39 39 39 40 40 41 42 41 42 44 46
71 71 70 68 70 72 72 71 69 68 68 69 64 62 60 56 55 55 54 54 56 55 54 55 54 53 52 53 51 52 53 51 46 43 42 42 42 42 42 42 42 42 42 43 43 43 43 44 44 44 44 45 46 47
70 70 71 71 73 72 71 70 69 68 68 68 66 64 63 61 60 59 58 57 55 53 52 52 51 50 51 52 52 53 53 53 49 45 44 44 45 44 46 46 45 45 45 46 47 47 47 47 47 46 46 46 47 49
66 66 68 70 70 70 70 67 65 66 66 66 66 66 66 63 61 60 58 56 53 50 49 47 45 46 49 50 50 53 53 54 53 48 46 47 48 48 48 49 49 50 51 50 50 51 51 51 48 47 47 47 48 50
62 62 63 63 64 62 58 56 59 62 62 63 64 64 62 60 61 61 59 57 56 54 50 47 46 46 47 48 50 51 51 52 52 52 51 50 51 53 53 52 52 53 53 53 52 52 52 50 47 46 47 48 49 50
64 63 61 58 56 51 50 51 52 55 56 58 57 59 58 59 59 60 59 58 56 51 48 49 50 51 52 53 52 50 50 51 52 53 54 55 56 57 56 55 55 55 55 53 52 51 49 46 45 46 48 49 50 51
67 64 60 57 55 49 46 46 45 45 49 51 53 54 55 56 58 59 60 59 55 53 51 51 51 52 53 53 52 51 49 50 51 52 53 55 55 55 55 55 55 54 53 52 50 48 46 46 47 48 49 50 51 52
Wind_Direction
161 163 166 172 170 165 165 170 173 167 169 171 172 176 177 178 180 177 178 180 186 193 193 198 202 209 208 208 207 220 226 227 239 246 233 221 227 226 225 226 237 255 275 289 299 315 321 340 339 345 344 341 339 341
167 169 173 175 178 159 167 169 180 174 169 171 175 180 177 175 176 177 182 184 188 184 193 198 203 212 211 208 215 227 228 241 256 237 230 222 224 222 221 227 239 259 273 284 300 315 321 337 336 343 345 348 344 340
164 165 161 171 165 153 162 163 171 170 171 164 170 174 178 177 180 185 188 191 186 190 197 204 208 211 213 214 218 223 226 237 248 253 238 222 225 222 224 231 243 259 273 284 298 306 317 329 333 337 341 344 345 343
164 165 161 169 161 161 165 163 170 173 177 176 174 179 179 186 184 182 176 184 191 198 201 198 202 206 209 215 220 221 228 228 255 249 233 225 227 226 229 234 247 259 269 278 289 303 316 326 327 332 337 339 343 344
162 162 163 167 172 165 167 167 176 176 177 175 175 183 186 189 187 185 183 190 191 196 205 207 210 213 215 219 224 225 223 239 258 235 219 227 230 229 235 239 248 257 266 280 291 300 313 321 326 329 333 336 340 343
154 159 165 159 151 166 171 171 173 176 175 179 177 183 186 183 184 188 191 199 203 203 207 208 210 212 218 220 227 228 228 234 262 237 215 228 229 232 240 240 248 259 266 279 289 298 306 314 321 325 329 332 336 340
153 161 162 160 174 166 169 172 173 176 178 182 179 180 177 177 183 187 192 192 194 199 200 201 209 214 220 223 224 230 236 240 250 249 221 227 232 237 240 238 244 260 266 280 288 294 303 311 316 320 325 329 331 336
161 168 156 161 170 170 170 170 173 174 177 179 181 182 185 183 181 180 187 192 199 206 203 202 209 220 223 228 233 239 245 248 247 247 225 228 231 234 234 231 251 261 271 279 287 295 303 308 313 317 321 324 328 331
161 161 156 159 162 167 167 170 173 177 179 180 182 183 180 178 182 187 195 200 197 202 203 208 217 219 224 230 235 240 248 248 245 238 225 228 230 236 228 246 254 263 270 283 291 297 301 304 309 313 316 320 324 326
160 159 158 158 154 162 168 164 169 171 179 185 185 188 195 194 185 183 188 197 203 205 207 209 214 219 226 232 237 245 250 250 240 229 224 230 229 229 235 244 260 270 277 284 290 297 298 302 305 309 313 317 320 323
156 154 158 161 159 162 158 167 173 179 180 181 184 181 178 182 186 192 199 204 207 210 213 215 217 227 233 237 240 249 254 244 230 220 228 230 221 222 240 251 260 274 284 287 292 292 293 296 301 306 311 313 317 319
148 154 149 161 164 168 173 172 174 176 180 181 182 177 179 185 187 195 202 206 209 209 212 214 218 224 231 235 242 251 246 238 230 223 230 231 216 237 250 257 270 279 284 290 295 296 296 298 302 305 308 312 314 317
151 159 154 153 164 168 172 176 176 178 179 180 179 181 182 189 196 206 208 207 209 212 209 210 218 230 237 240 243 248 244 236 234 229 231 228 239 250 256 265 275 284 289 293 298 299 299 302 302 304 308 309 312 313
154 159 162 167 171 175 173 175 177 177 181 184 186 188 192 200 205 206 208 210 211 205 206 212 221 229 235 232 238 243 241 235 231 229 230 236 243 249 258 267 277 281 286 292 295 297 298 299 301 305 307 309 311 313
161 163 161 168 176 173 175 178 178 180 183 187 189 192 197 201 201 203 205 202 203 204 211 221 226 229 225 234 244 247 239 229 225 229 233 239 245 251 260 268 275 280 284 288 292 294 296 301 306 307 309 311 314 317
166 176 175 177 177 176 177 178 180 183 187 190 194 196 198 200 203 203 203 200 200 209 219 221 222 228 240 249 244 255 252 235 226 232 241 244 248 253 261 267 270 273 278 287 289 291 295 299 302 305 306 310 317 319
177 178 178 180 181 182 182 185 188 190 193 194 196 198 201 205 205 201 200 200 211 220 229 228 225 232 245 248 251 258 269 244 233 240 247 247 250 255 257 258 262 269 278 282 286 293 295 297 299 302 310 317 316 316
180 182 185 185 185 185 188 190 191 193 196 197 197 200 205 206 205 205 208 215 221 226 233 236 236 242 250 252 257 229 234 239 236 234 241 247 247 245 246 251 259 265 273 285 298 301 302 305 308 312 315 316 316 317
188 188 192 191 191 194 196 196 198 199 200 202 204 203 203 205 208 208 210 214 219 227 235 240 242 244 255 255 242 229 229 232 235 238 242 243 239 239 241 248 254 259 266 279 291 297 303 310 313 314 315 316 318 318
193 194 193 196 198 199 202 203 204 204 206 209 210 208 211 208 211 213 215 217 224 233 239 240 246 248 251 250 234 227 231 235 241 245 244 240 239 238 242 247 246 250 257 268 285 294 299 303 304 308 312 314 315 315
198 194 198 198 201 204 207 206 207 210 211 212 213 213 214 216 218 219 219 222 227 233 237 238 245 246 249 245 237 239 242 242 243 244 244 240 238 241 244 245 241 241 247 254 270 284 292 298 303 305 307 310 310 311
200 200 198 201 204 208 211 209 211 213 216 217 218 218 219 220 219 219 223 225 227 232 236 237 245 251 251 245 234 237 241 241 243 245 244 241 240 241 243 244 238 237 241 245 258 270 281 289 295 300 304 306 306 306
203 203 198 199 202 207 213 216 218 220 220 220 220 219 219 221 223 224 224 226 230 235 236 238 242 253 254 250 242 239 240 244 246 246 243 241 243 248 249 244 238 238 241 243 252 264 274 281 289 298 301 303 303 304
205 205 207 204 206 210 212 214 215 217 218 219 220 222 224 226 229 232 230 229 232 235 236 239 244 249 254 254 249 243 242 243 246 247 247 246 247 249 250 248 244 245 250 256 260 264 271 281 288 292 296 298 300 302
209 211 211 214 216 215 214 214 217 220 223 226 225 225 229 232 236 238 235 234 237 236 237 242 245 248 255 256 253 248 245 245 246 247 247 246 247 249 249 248 248 252 259 263 267 272 278 282 285 289 293 296 297 299
212 215 215 216 218 217 219 221 226 229 228 227 227 230 234 236 236 235 235 234 234 237 242 246 250 252 253 251 248 247 244 243 245 248 250 249 247 248 249 249 252 257 262 266 271 276 278 281 285 289 293 295 297 299
216 218 216 216 217 219 224 227 230 232 231 230 233 238 238 237 236 236 238 237 237 244 249 251 253 253 251 251 248 245 246 246 245 246 248 249 248 249 251 252 254 258 264 270 274 277 280 283 286 289 293 295 297 299
220 221 222 221 219 219 222 223 227 231 233 232 236 238 237 238 241 243 244 245 245 247 252 255 256 256 253 250 248 245 243 242 242 244 245 248 251 251 253 255 258 262 268 272 275 278 280 282 284 287 290 292 294 296
219 221 222 224 224 226 228 230 231 232 233 234 237 239 239 243 245 246 248 248 250 254 255 256 254 250 248 249 248 245 246 245 243 245 247 249 252 255 256 259 263 265 268 271 273 276 279 281 283 285 287 290 292 294
219 219 222 224 226 228 229 231 233 234 235 237 238 240 241 243 245 245 246 247 247 248 248 248 248 248 247 246 246 246 247 246 244 246 249 251 253 256 258 261 264 267 270 272 274 276 277 278 280 282 285 288 290 293
223 223 223 223 225 225 226 228 230 233 235 236 237 238 238 239 241 243 243 244 244 244 244 244 245 245 246 246 246 246 248 249 249 251 253 256 259 260 261 265 269 271 274 275 275 276 276 277 279 282 284 286 289 291
226 226 226 225 225 225 226 225 225 228 231 231 232 234 235 237 239 241 242 243 243 241 240 242 242 243 244 247 248 249 251 252 253 254 256 258 260 264 266 267 269 271 273 275 275 275 276 278 280 282 284 286 288 291
231 228 229 229 228 223 225 228 227 229 230 230 231 232 233 234 235 237 239 241 242 243 241 242 243 244 245 248 250 251 252 253 253 255 257 260 262 265 267 268 270 272 273 273 273 273 275 277 279 281 283 286 288 288